iso_date,epoch_date,Year,Hour,Min,DOY,POS_DOY,Lat,Lon,BP,Ts,Ta,has_bp,has_ts,has_ta,BuoyID,Buoy_Type,Buoy_Owner,Logistics,Hemisphere
2016-03-25T22:00:28Z,1458943229,2016,22,0,85.917,85.917,62.4464,-13.089,975.1,7.72,-999.0,yes,yes,no,300234062950280,BD2GI,AOML,LAGARFOSS,North
2016-03-25T22:59:31Z,1458946771,2016,23,0,85.958,85.958,62.443,-13.0836,975.0,7.74,-999.0,yes,yes,no,300234062950280,BD2GI,AOML,LAGARFOSS,North
2016-03-26T00:00:00Z,1458950400,2016,0,0,86.0,86.0,62.4388,-13.0822,975.1,7.75,-999.0,yes,yes,no,300234062950280,BD2GI,AOML,LAGARFOSS,North
2016-03-26T01:00:28Z,1458954029,2016,1,0,86.042,86.042,62.4346,-13.086,975.1,7.73,-999.0,yes,yes,no,300234062950280,BD2GI,AOML,LAGARFOSS,North
2016-03-26T01:59:31Z,1458957571,2016,2,0,86.083,86.083,62.4298,-13.0956,975.0,7.77,-999.0,yes,yes,no,300234062950280,BD2GI,AOML,LAGARFOSS,North
2016-03-26T03:00:00Z,1458961200,2016,3,0,86.125,86.125,62.4248,-13.1104,975.1,7.79,-999.0,yes,yes,no,300234062950280,BD2GI,AOML,LAGARFOSS,North
2016-03-26T04:00:28Z,1458964829,2016,4,0,86.167,86.167,62.42,-13.1312,975.1,7.81,-999.0,yes,yes,no,300234062950280,BD2GI,AOML,LAGARFOSS,North
2016-03-26T04:59:31Z,1458968371,2016,5,0,86.208,86.208,62.4162,-13.1518,975.3,7.82,-999.0,yes,yes,no,300234062950280,BD2GI,AOML,LAGARFOSS,North
2016-03-26T06:00:00Z,1458972000,2016,6,0,86.25,86.25,62.4134,-13.1716,975.4,7.84,-999.0,yes,yes,no,300234062950280,BD2GI,AOML,LAGARFOSS,North
2016-03-26T07:00:28Z,1458975629,2016,7,0,86.292,86.292,62.4124,-13.1878,975.4,7.81,-999.0,yes,yes,no,300234062950280,BD2GI,AOML,LAGARFOSS,North
2016-03-26T07:59:31Z,1458979171,2016,8,0,86.333,86.333,62.4154,-13.1956,975.9,7.8,-999.0,yes,yes,no,300234062950280,BD2GI,AOML,LAGARFOSS,North
2016-03-26T09:00:00Z,1458982800,2016,9,0,86.375,86.375,62.4166,-13.198,978.2,7.81,-999.0,yes,yes,no,300234062950280,BD2GI,AOML,LAGARFOSS,North
2016-03-26T10:00:28Z,1458986429,2016,10,0,86.417,86.417,62.4174,-13.1986,978.4,7.84,-999.0,yes,yes,no,300234062950280,BD2GI,AOML,LAGARFOSS,North
2016-03-26T10:59:31Z,1458989971,2016,11,0,86.458,86.458,62.4168,-13.1984,978.1,7.85,-999.0,yes,yes,no,300234062950280,BD2GI,AOML,LAGARFOSS,North
2016-03-26T12:00:00Z,1458993600,2016,12,0,86.5,86.5,62.4148,-13.1994,978.1,7.85,-999.0,yes,yes,no,300234062950280,BD2GI,AOML,LAGARFOSS,North
2016-03-26T13:00:28Z,1458997229,2016,13,0,86.542,86.542,62.4102,-13.2062,984.1,7.82,-999.0,yes,yes,no,300234062950280,BD2GI,AOML,LAGARFOSS,North
2016-03-26T13:59:31Z,1459000771,2016,14,0,86.583,86.583,62.4048,-13.2194,982.5,7.81,-999.0,yes,yes,no,300234062950280,BD2GI,AOML,LAGARFOSS,North
2016-03-26T15:00:00Z,1459004400,2016,15,0,86.625,86.625,62.3996,-13.2386,983.5,7.82,-999.0,yes,yes,no,300234062950280,BD2GI,AOML,LAGARFOSS,North
2016-03-26T16:00:28Z,1459008029,2016,16,0,86.667,86.667,62.3948,-13.2594,984.1,7.87,-999.0,yes,yes,no,300234062950280,BD2GI,AOML,LAGARFOSS,North
2016-03-26T16:59:31Z,1459011571,2016,17,0,86.708,86.708,62.3916,-13.281,983.8,7.85,-999.0,yes,yes,no,300234062950280,BD2GI,AOML,LAGARFOSS,North
2016-03-26T18:00:00Z,1459015200,2016,18,0,86.75,86.75,62.3894,-13.3008,983.6,7.83,-999.0,yes,yes,no,300234062950280,BD2GI,AOML,LAGARFOSS,North
2016-03-26T19:00:28Z,1459018829,2016,19,0,86.792,86.792,62.388,-13.3158,982.6,7.83,-999.0,yes,yes,no,300234062950280,BD2GI,AOML,LAGARFOSS,North
2016-03-26T19:59:31Z,1459022371,2016,20,0,86.833,86.833,62.3868,-13.326,980.7,7.78,-999.0,yes,yes,no,300234062950280,BD2GI,AOML,LAGARFOSS,North
2016-03-26T21:00:00Z,1459026000,2016,21,0,86.875,86.875,62.3854,-13.3324,980.2,7.8,-999.0,yes,yes,no,300234062950280,BD2GI,AOML,LAGARFOSS,North
2016-03-26T22:00:28Z,1459029629,2016,22,0,86.917,86.917,62.3844,-13.3354,980.2,7.83,-999.0,yes,yes,no,300234062950280,BD2GI,AOML,LAGARFOSS,North
2016-03-26T22:59:31Z,1459033171,2016,23,0,86.958,86.958,62.383,-13.336,980.3,7.83,-999.0,yes,yes,no,300234062950280,BD2GI,AOML,LAGARFOSS,North
2016-03-27T00:00:00Z,1459036800,2016,0,0,87.0,87.0,62.3808,-13.3374,980.3,7.8,-999.0,yes,yes,no,300234062950280,BD2GI,AOML,LAGARFOSS,North
2016-03-27T01:00:28Z,1459040429,2016,1,0,87.042,87.042,62.3778,-13.3402,980.1,7.85,-999.0,yes,yes,no,300234062950280,BD2GI,AOML,LAGARFOSS,North
2016-03-27T01:59:31Z,1459043971,2016,2,0,87.083,87.083,62.374,-13.3468,980.0,7.82,-999.0,yes,yes,no,300234062950280,BD2GI,AOML,LAGARFOSS,North
2016-03-27T03:00:00Z,1459047600,2016,3,0,87.125,87.125,62.3692,-13.3578,980.1,7.81,-999.0,yes,yes,no,300234062950280,BD2GI,AOML,LAGARFOSS,North
2016-03-27T04:00:28Z,1459051229,2016,4,0,87.167,87.167,62.3638,-13.3714,980.1,7.79,-999.0,yes,yes,no,300234062950280,BD2GI,AOML,LAGARFOSS,North
2016-03-27T04:59:31Z,1459054771,2016,5,0,87.208,87.208,62.359,-13.3856,980.0,7.81,-999.0,yes,yes,no,300234062950280,BD2GI,AOML,LAGARFOSS,North
2016-03-27T06:00:00Z,1459058400,2016,6,0,87.25,87.25,62.3552,-13.398,980.0,7.83,-999.0,yes,yes,no,300234062950280,BD2GI,AOML,LAGARFOSS,North
2016-03-27T07:00:28Z,1459062029,2016,7,0,87.292,87.292,62.3514,-13.4072,980.0,7.83,-999.0,yes,yes,no,300234062950280,BD2GI,AOML,LAGARFOSS,North
2016-03-27T07:59:31Z,1459065571,2016,8,0,87.333,87.333,62.3492,-13.4126,980.5,7.85,-999.0,yes,yes,no,300234062950280,BD2GI,AOML,LAGARFOSS,North
2016-03-27T09:00:00Z,1459069200,2016,9,0,87.375,87.375,62.3478,-13.4134,980.8,7.83,-999.0,yes,yes,no,300234062950280,BD2GI,AOML,LAGARFOSS,North
2016-03-27T10:00:28Z,1459072829,2016,10,0,87.417,87.417,62.3472,-13.4138,981.1,7.86,-999.0,yes,yes,no,300234062950280,BD2GI,AOML,LAGARFOSS,North
2016-03-27T10:59:31Z,1459076371,2016,11,0,87.458,87.458,62.3474,-13.4108,979.4,7.85,-999.0,yes,yes,no,300234062950280,BD2GI,AOML,LAGARFOSS,North
2016-03-27T12:00:00Z,1459080000,2016,12,0,87.5,87.5,62.347,-13.4064,982.2,7.85,-999.0,yes,yes,no,300234062950280,BD2GI,AOML,LAGARFOSS,North
2016-03-27T13:00:28Z,1459083629,2016,13,0,87.542,87.542,62.3456,-13.4014,982.5,7.86,-999.0,yes,yes,no,300234062950280,BD2GI,AOML,LAGARFOSS,North
2016-03-27T13:59:31Z,1459087171,2016,14,0,87.583,87.583,62.3434,-13.3966,983.0,7.83,-999.0,yes,yes,no,300234062950280,BD2GI,AOML,LAGARFOSS,North
2016-03-27T15:00:00Z,1459090800,2016,15,0,87.625,87.625,62.3382,-13.3928,981.5,7.82,-999.0,yes,yes,no,300234062950280,BD2GI,AOML,LAGARFOSS,North
2016-03-27T16:00:28Z,1459094429,2016,16,0,87.667,87.667,62.3322,-13.3916,979.0,7.76,-999.0,yes,yes,no,300234062950280,BD2GI,AOML,LAGARFOSS,North
2016-03-27T16:59:31Z,1459097971,2016,17,0,87.708,87.708,62.3252,-13.3958,978.7,7.78,-999.0,yes,yes,no,300234062950280,BD2GI,AOML,LAGARFOSS,North
2016-03-27T18:00:00Z,1459101600,2016,18,0,87.75,87.708,62.3252,-13.3958,978.9,7.79,-999.0,yes,yes,no,300234062950280,BD2GI,AOML,LAGARFOSS,North
2016-03-27T19:00:28Z,1459105229,2016,19,0,87.792,87.792,62.3148,-13.4148,978.6,7.78,-999.0,yes,yes,no,300234062950280,BD2GI,AOML,LAGARFOSS,North
2016-03-27T19:59:31Z,1459108771,2016,20,0,87.833,87.833,62.3132,-13.4228,978.4,7.77,-999.0,yes,yes,no,300234062950280,BD2GI,AOML,LAGARFOSS,North
2016-03-27T21:00:00Z,1459112400,2016,21,0,87.875,87.875,62.3134,-13.428,978.3,7.77,-999.0,yes,yes,no,300234062950280,BD2GI,AOML,LAGARFOSS,North
2016-03-27T22:00:28Z,1459116029,2016,22,0,87.917,87.875,62.3134,-13.428,978.2,7.76,-999.0,yes,yes,no,300234062950280,BD2GI,AOML,LAGARFOSS,North
2016-03-27T22:59:31Z,1459119571,2016,23,0,87.958,87.958,62.3192,-13.4232,978.1,7.78,-999.0,yes,yes,no,300234062950280,BD2GI,AOML,LAGARFOSS,North
2016-03-28T00:00:00Z,1459123200,2016,0,0,88.0,88.0,62.3218,-13.4162,978.2,7.76,-999.0,yes,yes,no,300234062950280,BD2GI,AOML,LAGARFOSS,North
2016-03-28T01:00:28Z,1459126829,2016,1,0,88.042,88.042,62.3248,-13.4092,978.2,7.76,-999.0,yes,yes,no,300234062950280,BD2GI,AOML,LAGARFOSS,North
2016-03-28T01:59:31Z,1459130371,2016,2,0,88.083,88.083,62.327,-13.4006,978.0,7.76,-999.0,yes,yes,no,300234062950280,BD2GI,AOML,LAGARFOSS,North
2016-03-28T03:00:00Z,1459134000,2016,3,0,88.125,88.125,62.3274,-13.3944,978.0,7.77,-999.0,yes,yes,no,300234062950280,BD2GI,AOML,LAGARFOSS,North
2016-03-28T04:00:28Z,1459137629,2016,4,0,88.167,88.167,62.3268,-13.3924,977.9,7.76,-999.0,yes,yes,no,300234062950280,BD2GI,AOML,LAGARFOSS,North
2016-03-28T04:59:31Z,1459141171,2016,5,0,88.208,88.208,62.3258,-13.3934,978.0,7.74,-999.0,yes,yes,no,300234062950280,BD2GI,AOML,LAGARFOSS,North
2016-03-28T06:00:00Z,1459144800,2016,6,0,88.25,88.25,62.3252,-13.396,977.8,7.74,-999.0,yes,yes,no,300234062950280,BD2GI,AOML,LAGARFOSS,North
2016-03-28T07:00:28Z,1459148429,2016,7,0,88.292,88.292,62.3246,-13.3996,977.8,7.71,-999.0,yes,yes,no,300234062950280,BD2GI,AOML,LAGARFOSS,North
2016-03-28T07:59:31Z,1459151971,2016,8,0,88.333,88.333,62.3254,-13.4024,978.6,7.71,-999.0,yes,yes,no,300234062950280,BD2GI,AOML,LAGARFOSS,North
2016-03-28T09:00:00Z,1459155600,2016,9,0,88.375,88.375,62.3286,-13.4036,979.6,7.68,-999.0,yes,yes,no,300234062950280,BD2GI,AOML,LAGARFOSS,North
2016-03-28T10:00:28Z,1459159229,2016,10,0,88.417,88.417,62.3336,-13.3994,980.0,7.67,-999.0,yes,yes,no,300234062950280,BD2GI,AOML,LAGARFOSS,North
2016-03-28T10:59:31Z,1459162771,2016,11,0,88.458,88.458,62.3402,-13.3934,981.1,7.68,-999.0,yes,yes,no,300234062950280,BD2GI,AOML,LAGARFOSS,North
2016-03-28T12:00:00Z,1459166400,2016,12,0,88.5,88.5,62.3472,-13.3858,980.9,7.68,-999.0,yes,yes,no,300234062950280,BD2GI,AOML,LAGARFOSS,North
2016-03-28T13:00:28Z,1459170029,2016,13,0,88.542,88.542,62.3544,-13.3772,980.6,7.67,-999.0,yes,yes,no,300234062950280,BD2GI,AOML,LAGARFOSS,North
2016-03-28T13:59:31Z,1459173571,2016,14,0,88.583,88.583,62.3608,-13.3682,980.4,7.67,-999.0,yes,yes,no,300234062950280,BD2GI,AOML,LAGARFOSS,North
2016-03-28T15:00:00Z,1459177200,2016,15,0,88.625,88.625,62.3656,-13.3618,979.9,7.69,-999.0,yes,yes,no,300234062950280,BD2GI,AOML,LAGARFOSS,North
2016-03-28T16:00:28Z,1459180829,2016,16,0,88.667,88.667,62.37,-13.3588,979.8,7.68,-999.0,yes,yes,no,300234062950280,BD2GI,AOML,LAGARFOSS,North
2016-03-28T16:59:31Z,1459184371,2016,17,0,88.708,88.708,62.3736,-13.3592,979.5,7.67,-999.0,yes,yes,no,300234062950280,BD2GI,AOML,LAGARFOSS,North
2016-03-28T18:00:00Z,1459188000,2016,18,0,88.75,88.75,62.3772,-13.3618,980.1,7.68,-999.0,yes,yes,no,300234062950280,BD2GI,AOML,LAGARFOSS,North
2016-03-28T19:00:28Z,1459191629,2016,19,0,88.792,88.792,62.3816,-13.366,979.0,7.66,-999.0,yes,yes,no,300234062950280,BD2GI,AOML,LAGARFOSS,North
2016-03-28T19:59:31Z,1459195171,2016,20,0,88.833,88.833,62.3868,-13.3694,977.9,7.67,-999.0,yes,yes,no,300234062950280,BD2GI,AOML,LAGARFOSS,North
2016-03-28T21:00:00Z,1459198800,2016,21,0,88.875,88.875,62.3912,-13.3728,977.8,7.67,-999.0,yes,yes,no,300234062950280,BD2GI,AOML,LAGARFOSS,North
2016-03-28T22:00:28Z,1459202429,2016,22,0,88.917,88.917,62.397,-13.3728,977.6,7.67,-999.0,yes,yes,no,300234062950280,BD2GI,AOML,LAGARFOSS,North
2016-03-28T22:59:31Z,1459205971,2016,23,0,88.958,88.958,62.4046,-13.3718,977.5,7.67,-999.0,yes,yes,no,300234062950280,BD2GI,AOML,LAGARFOSS,North
2016-03-29T00:00:00Z,1459209600,2016,0,0,89.0,89.0,62.4128,-13.37,977.7,7.67,-999.0,yes,yes,no,300234062950280,BD2GI,AOML,LAGARFOSS,North
2016-03-29T01:00:28Z,1459213229,2016,1,0,89.042,89.042,62.4204,-13.3672,977.6,7.67,-999.0,yes,yes,no,300234062950280,BD2GI,AOML,LAGARFOSS,North
2016-03-29T01:59:31Z,1459216771,2016,2,0,89.083,89.083,62.4272,-13.3634,977.6,7.67,-999.0,yes,yes,no,300234062950280,BD2GI,AOML,LAGARFOSS,North
2016-03-29T03:00:00Z,1459220400,2016,3,0,89.125,89.125,62.4326,-13.362,977.4,7.67,-999.0,yes,yes,no,300234062950280,BD2GI,AOML,LAGARFOSS,North
2016-03-29T04:00:28Z,1459224029,2016,4,0,89.167,89.167,62.4368,-13.364,977.4,7.66,-999.0,yes,yes,no,300234062950280,BD2GI,AOML,LAGARFOSS,North
2016-03-29T04:59:31Z,1459227571,2016,5,0,89.208,89.208,62.4396,-13.3672,977.4,7.67,-999.0,yes,yes,no,300234062950280,BD2GI,AOML,LAGARFOSS,North
2016-03-29T06:00:00Z,1459231200,2016,6,0,89.25,89.25,62.4414,-13.3728,977.2,7.68,-999.0,yes,yes,no,300234062950280,BD2GI,AOML,LAGARFOSS,North
2016-03-29T07:00:28Z,1459234829,2016,7,0,89.292,89.292,62.4424,-13.38,977.3,7.7,-999.0,yes,yes,no,300234062950280,BD2GI,AOML,LAGARFOSS,North
2016-03-29T07:59:31Z,1459238371,2016,8,0,89.333,89.333,62.4438,-13.3884,977.8,7.71,-999.0,yes,yes,no,300234062950280,BD2GI,AOML,LAGARFOSS,North
2016-03-29T09:00:00Z,1459242000,2016,9,0,89.375,89.375,62.4466,-13.3948,978.7,7.72,-999.0,yes,yes,no,300234062950280,BD2GI,AOML,LAGARFOSS,North
2016-03-29T10:00:28Z,1459245629,2016,10,0,89.417,89.417,62.4508,-13.3958,979.6,7.73,-999.0,yes,yes,no,300234062950280,BD2GI,AOML,LAGARFOSS,North
2016-03-29T10:59:31Z,1459249171,2016,11,0,89.458,89.458,62.4554,-13.3938,979.8,7.73,-999.0,yes,yes,no,300234062950280,BD2GI,AOML,LAGARFOSS,North
2016-03-29T12:00:00Z,1459252800,2016,12,0,89.5,89.5,62.4616,-13.3914,980.7,7.74,-999.0,yes,yes,no,300234062950280,BD2GI,AOML,LAGARFOSS,North
2016-03-29T13:00:28Z,1459256429,2016,13,0,89.542,89.542,62.4656,-13.3862,981.1,7.73,-999.0,yes,yes,no,300234062950280,BD2GI,AOML,LAGARFOSS,North
2016-03-29T13:59:31Z,1459259971,2016,14,0,89.583,89.583,62.469,-13.3816,981.1,7.74,-999.0,yes,yes,no,300234062950280,BD2GI,AOML,LAGARFOSS,North
2016-03-29T15:00:00Z,1459263600,2016,15,0,89.625,89.625,62.4702,-13.3758,980.8,7.74,-999.0,yes,yes,no,300234062950280,BD2GI,AOML,LAGARFOSS,North
2016-03-29T16:00:28Z,1459267229,2016,16,0,89.667,89.667,62.47,-13.3722,980.9,7.75,-999.0,yes,yes,no,300234062950280,BD2GI,AOML,LAGARFOSS,North
2016-03-29T16:59:31Z,1459270771,2016,17,0,89.708,89.708,62.4676,-13.3694,980.7,7.75,-999.0,yes,yes,no,300234062950280,BD2GI,AOML,LAGARFOSS,North
2016-03-29T18:00:00Z,1459274400,2016,18,0,89.75,89.75,62.4646,-13.3704,978.7,7.76,-999.0,yes,yes,no,300234062950280,BD2GI,AOML,LAGARFOSS,North
2016-03-29T19:00:28Z,1459278029,2016,19,0,89.792,89.792,62.4624,-13.3732,977.7,7.76,-999.0,yes,yes,no,300234062950280,BD2GI,AOML,LAGARFOSS,North
2016-03-29T19:59:31Z,1459281571,2016,20,0,89.833,89.833,62.4614,-13.3782,977.2,7.74,-999.0,yes,yes,no,300234062950280,BD2GI,AOML,LAGARFOSS,North
2016-03-29T21:00:00Z,1459285200,2016,21,0,89.875,89.875,62.4628,-13.3802,977.3,7.75,-999.0,yes,yes,no,300234062950280,BD2GI,AOML,LAGARFOSS,North
2016-03-29T22:00:28Z,1459288829,2016,22,0,89.917,89.917,62.466,-13.3804,977.2,7.75,-999.0,yes,yes,no,300234062950280,BD2GI,AOML,LAGARFOSS,North
2016-03-29T22:59:31Z,1459292371,2016,23,0,89.958,89.958,62.4706,-13.3774,977.2,7.74,-999.0,yes,yes,no,300234062950280,BD2GI,AOML,LAGARFOSS,North
2016-03-30T00:00:00Z,1459296000,2016,0,0,90.0,90.0,62.4758,-13.3724,977.2,7.75,-999.0,yes,yes,no,300234062950280,BD2GI,AOML,LAGARFOSS,North
2016-03-30T01:00:28Z,1459299629,2016,1,0,90.042,90.042,62.4812,-13.367,977.1,7.77,-999.0,yes,yes,no,300234062950280,BD2GI,AOML,LAGARFOSS,North
2016-03-30T01:59:31Z,1459303171,2016,2,0,90.083,90.083,62.4868,-13.3612,976.8,7.75,-999.0,yes,yes,no,300234062950280,BD2GI,AOML,LAGARFOSS,North
2016-03-30T03:00:00Z,1459306800,2016,3,0,90.125,90.125,62.4912,-13.356,976.8,7.75,-999.0,yes,yes,no,300234062950280,BD2GI,AOML,LAGARFOSS,North
2016-03-30T04:00:28Z,1459310429,2016,4,0,90.167,90.167,62.495,-13.3524,977.0,7.75,-999.0,yes,yes,no,300234062950280,BD2GI,AOML,LAGARFOSS,North
2016-03-30T04:59:31Z,1459313971,2016,5,0,90.208,90.208,62.4978,-13.352,977.0,7.74,-999.0,yes,yes,no,300234062950280,BD2GI,AOML,LAGARFOSS,North
2016-03-30T06:00:00Z,1459317600,2016,6,0,90.25,90.25,62.5,-13.356,976.9,7.72,-999.0,yes,yes,no,300234062950280,BD2GI,AOML,LAGARFOSS,North
2016-03-30T07:00:28Z,1459321229,2016,7,0,90.292,90.292,62.5024,-13.3614,976.8,7.75,-999.0,yes,yes,no,300234062950280,BD2GI,AOML,LAGARFOSS,North
2016-03-30T07:59:31Z,1459324771,2016,8,0,90.333,90.333,62.505,-13.3684,977.2,7.75,-999.0,yes,yes,no,300234062950280,BD2GI,AOML,LAGARFOSS,North
2016-03-30T09:00:00Z,1459328400,2016,9,0,90.375,90.375,62.509,-13.3768,977.3,7.75,-999.0,yes,yes,no,300234062950280,BD2GI,AOML,LAGARFOSS,North
2016-03-30T10:00:28Z,1459332029,2016,10,0,90.417,90.417,62.5144,-13.3838,977.5,7.74,-999.0,yes,yes,no,300234062950280,BD2GI,AOML,LAGARFOSS,North
2016-03-30T10:59:31Z,1459335571,2016,11,0,90.458,90.458,62.5206,-13.3864,977.3,7.72,-999.0,yes,yes,no,300234062950280,BD2GI,AOML,LAGARFOSS,North
2016-03-30T12:00:00Z,1459339200,2016,12,0,90.5,90.5,62.5282,-13.3874,977.5,7.73,-999.0,yes,yes,no,300234062950280,BD2GI,AOML,LAGARFOSS,North
2016-03-30T13:00:28Z,1459342829,2016,13,0,90.542,90.542,62.5368,-13.3876,977.7,7.74,-999.0,yes,yes,no,300234062950280,BD2GI,AOML,LAGARFOSS,North
2016-03-30T13:59:31Z,1459346371,2016,14,0,90.583,90.583,62.546,-13.3888,977.9,7.73,-999.0,yes,yes,no,300234062950280,BD2GI,AOML,LAGARFOSS,North
2016-03-30T15:00:00Z,1459350000,2016,15,0,90.625,90.625,62.5538,-13.3898,977.8,7.75,-999.0,yes,yes,no,300234062950280,BD2GI,AOML,LAGARFOSS,North
2016-03-30T16:00:28Z,1459353629,2016,16,0,90.667,90.667,62.5612,-13.393,977.6,7.76,-999.0,yes,yes,no,300234062950280,BD2GI,AOML,LAGARFOSS,North
2016-03-30T16:59:31Z,1459357171,2016,17,0,90.708,90.708,62.569,-13.399,977.6,7.75,-999.0,yes,yes,no,300234062950280,BD2GI,AOML,LAGARFOSS,North
2016-03-30T18:00:00Z,1459360800,2016,18,0,90.75,90.75,62.5762,-13.407,977.6,7.74,-999.0,yes,yes,no,300234062950280,BD2GI,AOML,LAGARFOSS,North
2016-03-30T19:00:28Z,1459364429,2016,19,0,90.792,90.792,62.5848,-13.4174,977.6,7.74,-999.0,yes,yes,no,300234062950280,BD2GI,AOML,LAGARFOSS,North
2016-03-30T19:59:31Z,1459367971,2016,20,0,90.833,90.833,62.5944,-13.427,977.8,7.73,-999.0,yes,yes,no,300234062950280,BD2GI,AOML,LAGARFOSS,North
2016-03-30T21:00:00Z,1459371600,2016,21,0,90.875,90.875,62.6052,-13.4362,978.0,7.73,-999.0,yes,yes,no,300234062950280,BD2GI,AOML,LAGARFOSS,North
2016-03-30T22:00:28Z,1459375229,2016,22,0,90.917,90.917,62.6164,-13.4392,977.8,7.66,-999.0,yes,yes,no,300234062950280,BD2GI,AOML,LAGARFOSS,North
2016-03-30T22:59:31Z,1459378771,2016,23,0,90.958,90.958,62.6274,-13.4372,977.9,7.67,-999.0,yes,yes,no,300234062950280,BD2GI,AOML,LAGARFOSS,North
2016-03-31T00:00:00Z,1459382400,2016,0,0,91.0,91.0,62.6378,-13.4326,977.9,7.66,-999.0,yes,yes,no,300234062950280,BD2GI,AOML,LAGARFOSS,North
2016-03-31T01:00:28Z,1459386029,2016,1,0,91.042,91.042,62.648,-13.425,977.9,7.67,-999.0,yes,yes,no,300234062950280,BD2GI,AOML,LAGARFOSS,North
2016-03-31T01:59:31Z,1459389571,2016,2,0,91.083,91.083,62.6564,-13.415,977.9,7.69,-999.0,yes,yes,no,300234062950280,BD2GI,AOML,LAGARFOSS,North
2016-03-31T03:00:00Z,1459393200,2016,3,0,91.125,91.125,62.663,-13.4078,978.0,7.7,-999.0,yes,yes,no,300234062950280,BD2GI,AOML,LAGARFOSS,North
2016-03-31T04:00:28Z,1459396829,2016,4,0,91.167,91.167,62.6694,-13.4006,977.9,7.7,-999.0,yes,yes,no,300234062950280,BD2GI,AOML,LAGARFOSS,North
2016-03-31T04:59:31Z,1459400371,2016,5,0,91.208,91.208,62.6744,-13.3968,977.9,7.69,-999.0,yes,yes,no,300234062950280,BD2GI,AOML,LAGARFOSS,North
2016-03-31T06:00:00Z,1459404000,2016,6,0,91.25,91.206,62.6744,-13.3968,977.8,7.69,-999.0,yes,yes,no,300234062950280,BD2GI,AOML,LAGARFOSS,North
2016-03-31T07:00:28Z,1459407629,2016,7,0,91.292,91.292,62.6798,-13.395,977.9,7.69,-999.0,yes,yes,no,300234062950280,BD2GI,AOML,LAGARFOSS,North
2016-03-31T07:59:31Z,1459411171,2016,8,0,91.333,91.333,62.6826,-13.3982,978.0,7.7,-999.0,yes,yes,no,300234062950280,BD2GI,AOML,LAGARFOSS,North
2016-03-31T09:00:00Z,1459414800,2016,9,0,91.375,91.375,62.6864,-13.4014,978.6,7.69,-999.0,yes,yes,no,300234062950280,BD2GI,AOML,LAGARFOSS,North
2016-03-31T10:00:28Z,1459418429,2016,10,0,91.417,91.417,62.6904,-13.403,979.4,7.69,-999.0,yes,yes,no,300234062950280,BD2GI,AOML,LAGARFOSS,North
2016-03-31T10:59:31Z,1459421971,2016,11,0,91.458,91.458,62.6958,-13.4016,979.3,7.69,-999.0,yes,yes,no,300234062950280,BD2GI,AOML,LAGARFOSS,North
2016-03-31T12:00:00Z,1459425600,2016,12,0,91.5,91.5,62.7028,-13.3968,980.9,7.71,-999.0,yes,yes,no,300234062950280,BD2GI,AOML,LAGARFOSS,North
2016-03-31T13:00:28Z,1459429229,2016,13,0,91.542,91.542,62.7098,-13.3904,981.3,7.73,-999.0,yes,yes,no,300234062950280,BD2GI,AOML,LAGARFOSS,North
2016-03-31T13:59:31Z,1459432771,2016,14,0,91.583,91.583,62.7162,-13.3784,980.2,7.74,-999.0,yes,yes,no,300234062950280,BD2GI,AOML,LAGARFOSS,North
2016-03-31T15:00:00Z,1459436400,2016,15,0,91.625,91.625,62.7216,-13.3648,980.6,7.73,-999.0,yes,yes,no,300234062950280,BD2GI,AOML,LAGARFOSS,North
2016-03-31T16:00:28Z,1459440029,2016,16,0,91.667,91.667,62.7262,-13.3516,981.0,7.75,-999.0,yes,yes,no,300234062950280,BD2GI,AOML,LAGARFOSS,North
2016-03-31T16:59:31Z,1459443571,2016,17,0,91.708,91.708,62.7298,-13.3424,981.6,7.75,-999.0,yes,yes,no,300234062950280,BD2GI,AOML,LAGARFOSS,North
2016-03-31T18:00:00Z,1459447200,2016,18,0,91.75,91.75,62.7332,-13.3368,980.2,7.74,-999.0,yes,yes,no,300234062950280,BD2GI,AOML,LAGARFOSS,North
2016-03-31T19:00:28Z,1459450829,2016,19,0,91.792,91.792,62.7366,-13.3356,978.5,7.74,-999.0,yes,yes,no,300234062950280,BD2GI,AOML,LAGARFOSS,North
2016-03-31T19:59:31Z,1459454371,2016,20,0,91.833,91.833,62.7406,-13.3382,977.9,7.72,-999.0,yes,yes,no,300234062950280,BD2GI,AOML,LAGARFOSS,North
2016-03-31T21:00:00Z,1459458000,2016,21,0,91.875,91.875,62.7458,-13.3434,977.9,7.73,-999.0,yes,yes,no,300234062950280,BD2GI,AOML,LAGARFOSS,North
2016-03-31T22:00:28Z,1459461629,2016,22,0,91.917,91.917,62.7512,-13.3474,977.9,7.72,-999.0,yes,yes,no,300234062950280,BD2GI,AOML,LAGARFOSS,North
2016-03-31T22:59:31Z,1459465171,2016,23,0,91.958,91.958,62.7584,-13.352,977.9,7.72,-999.0,yes,yes,no,300234062950280,BD2GI,AOML,LAGARFOSS,North
2016-04-01T00:00:00Z,1459468800,2016,0,0,92.0,92.0,62.7668,-13.355,977.9,7.72,-999.0,yes,yes,no,300234062950280,BD2GI,AOML,LAGARFOSS,North
2016-04-01T01:00:28Z,1459472429,2016,1,0,92.042,92.042,62.7766,-13.357,978.0,7.71,-999.0,yes,yes,no,300234062950280,BD2GI,AOML,LAGARFOSS,North
2016-04-01T01:59:31Z,1459475971,2016,2,0,92.083,92.083,62.7876,-13.3586,978.0,7.71,-999.0,yes,yes,no,300234062950280,BD2GI,AOML,LAGARFOSS,North
2016-04-01T03:00:00Z,1459479600,2016,3,0,92.125,92.125,62.7982,-13.3646,977.9,7.71,-999.0,yes,yes,no,300234062950280,BD2GI,AOML,LAGARFOSS,North
2016-04-01T04:00:28Z,1459483229,2016,4,0,92.167,92.167,62.809,-13.3708,978.0,7.7,-999.0,yes,yes,no,300234062950280,BD2GI,AOML,LAGARFOSS,North
2016-04-01T04:59:31Z,1459486771,2016,5,0,92.208,92.208,62.818,-13.3774,978.0,7.7,-999.0,yes,yes,no,300234062950280,BD2GI,AOML,LAGARFOSS,North
2016-04-01T06:00:00Z,1459490400,2016,6,0,92.25,92.25,62.8266,-13.384,978.1,7.7,-999.0,yes,yes,no,300234062950280,BD2GI,AOML,LAGARFOSS,North
2016-04-01T07:00:28Z,1459494029,2016,7,0,92.292,92.249,62.8266,-13.384,978.1,7.7,-999.0,yes,yes,no,300234062950280,BD2GI,AOML,LAGARFOSS,North
2016-04-01T07:59:31Z,1459497571,2016,8,0,92.333,92.333,62.8436,-13.3964,978.2,7.69,-999.0,yes,yes,no,300234062950280,BD2GI,AOML,LAGARFOSS,North
2016-04-01T09:00:00Z,1459501200,2016,9,0,92.375,92.375,62.8518,-13.4056,978.4,7.69,-999.0,yes,yes,no,300234062950280,BD2GI,AOML,LAGARFOSS,North
2016-04-01T10:00:28Z,1459504829,2016,10,0,92.417,92.417,62.8588,-13.4138,978.4,7.68,-999.0,yes,yes,no,300234062950280,BD2GI,AOML,LAGARFOSS,North
2016-04-01T10:59:31Z,1459508371,2016,11,0,92.458,92.458,62.868,-13.4228,978.6,7.67,-999.0,yes,yes,no,300234062950280,BD2GI,AOML,LAGARFOSS,North
2016-04-01T12:00:00Z,1459512000,2016,12,0,92.5,92.5,62.8768,-13.4288,978.8,7.68,-999.0,yes,yes,no,300234062950280,BD2GI,AOML,LAGARFOSS,North
2016-04-01T13:00:28Z,1459515629,2016,13,0,92.542,92.542,62.8862,-13.429,979.4,7.68,-999.0,yes,yes,no,300234062950280,BD2GI,AOML,LAGARFOSS,North
2016-04-01T13:59:31Z,1459519171,2016,14,0,92.583,92.583,62.896,-13.4254,980.0,7.71,-999.0,yes,yes,no,300234062950280,BD2GI,AOML,LAGARFOSS,North
2016-04-01T15:00:00Z,1459522800,2016,15,0,92.625,92.625,62.905,-13.42,987.6,7.76,-999.0,yes,yes,no,300234062950280,BD2GI,AOML,LAGARFOSS,North
2016-04-01T16:00:28Z,1459526429,2016,16,0,92.667,92.667,62.9136,-13.415,987.0,7.8,-999.0,yes,yes,no,300234062950280,BD2GI,AOML,LAGARFOSS,North
2016-04-01T16:59:31Z,1459529971,2016,17,0,92.708,92.708,62.9214,-13.4104,987.6,7.82,-999.0,yes,yes,no,300234062950280,BD2GI,AOML,LAGARFOSS,North
2016-04-01T18:00:00Z,1459533600,2016,18,0,92.75,92.75,62.9284,-13.4086,987.3,7.85,-999.0,yes,yes,no,300234062950280,BD2GI,AOML,LAGARFOSS,North
2016-04-01T19:00:28Z,1459537229,2016,19,0,92.792,92.792,62.9346,-13.41,985.4,7.8,-999.0,yes,yes,no,300234062950280,BD2GI,AOML,LAGARFOSS,North